                ,  0.945,  1.145,  1.345,  1.545,  1.745,  1.945,  2.145,  2.345,  2.545,  2.745,  2.945,  3.145,  3.345,  3.545,  3.745,  3.945,  4.145,  4.345,  4.545,  4.745,  4.945,  5.145,  5.345,  5.545,  5.745,  5.945,  6.145,  6.345,  6.545,  6.745,  6.945,  7.145,  7.345,  7.545,  7.745,  7.945,  8.145,  8.345,  8.545,  8.745,  8.945,  9.145,  9.345,  9.545,  9.745,  9.945
2001/10/21 00:00,   -0.8,   -0.2,   -0.3,   -5.0,   -0.3,   -0.1,   -2.5,   -0.5,   -0.3,  999.0,  999.0,  999.0,   -0.8,  999.0,   -1.2,  999.0,  999.0,  999.0,  999.0,  999.0,  999.0,  999.0,  999.0,  999.0,  999.0,   -0.0,   -0.2,   -0.4,   -0.6,   -0.8,   -1.2,   -1.1,   -1.0,   -0.8,   -0.8,   -0.7,   -0.7,  999.0,  999.0,  999.0,  999.0,  999.0,  999.0,  999.0,  999.0,  999.0
2001/10/21 00:10,   -0.2,   -0.1,   -0.5,    0.0,   -0.2,   -0.1,    0.3,   -0.4,   -0.3,    0.2,   -0.4,   -0.1,   -1.1,  999.0,  999.0,  999.0,  999.0,  999.0,  999.0,  999.0,  999.0,  999.0,  999.0,    0.4,   -0.2,   -0.1,   -0.0,   -0.3,   -0.7,   -0.7,   -0.8,   -0.8,   -0.7,   -0.7,   -0.6,   -0.4,   -0.4,   -0.5,   -0.5,  999.0,  999.0,  999.0,  999.0,  999.0,  999.0,  999.0
2001/10/21 00:20,   -0.1,   -0.1,   -0.3,   -0.1,    0.2,    0.3,    0.5,    0.3,    0.1,    0.3,   -0.3,    0.2,   -0.9,   -0.8,  999.0,  999.0,  999.0,  999.0,  999.0,  999.0,  999.0,  999.0,  999.0,  999.0,  999.0,   -0.2,   -0.7,  999.0,   -1.5,   -1.1,   -0.9,   -0.8,   -0.8,   -0.8,   -0.7,   -0.6,   -0.6,   -0.7,   -0.7,   -0.6,   -0.5,   -0.4,   -0.3,   -0.2,  999.0,  999.0
2001/10/21 00:30,    0.7,    0.0,    0.2,    0.2,    0.2,    0.4,    0.3,    0.1,   -0.1,   -0.1,   -0.4,   -1.0,   -0.4,   -1.2,  999.0,    0.5,   -0.1,  999.0,  999.0,  999.0,  999.0,  999.0,    0.1,    0.1,   -0.4,   -0.4,   -0.8,   -0.7,   -0.9,   -0.8,   -0.6,   -0.7,   -0.5,   -0.5,   -0.5,   -0.5,   -0.3,  999.0,  999.0,  999.0,  999.0,  999.0,  999.0,  999.0,  999.0,  999.0
2001/10/21 00:40,   -0.1,    0.2,    0.3,    0.3,    0.3,    0.4,    0.3,    0.3,    0.1,    0.5,   -0.3,  999.0,  999.0,   -0.2,    0.1,  999.0,  999.0,  999.0,  999.0,  999.0,  999.0,  999.0,    0.1,    0.1,    0.0,   -0.0,    0.0,   -0.2,   -0.4,   -0.7,   -0.8,   -0.8,   -0.8,   -0.8,   -0.9,   -0.6,   -0.8,   -0.7,   -0.8,   -0.8,   -0.8,   -0.8,   -0.6,  999.0,  999.0,  999.0
2001/10/21 00:50,   -0.1,    0.2,   -0.3,    0.0,    0.2,   -0.1,    0.5,    0.3,   -0.1,   -0.3,   -0.2,   -0.1,   -0.1,    0.1,  999.0,  999.0,  999.0,  999.0,  999.0,  999.0,  999.0,  999.0,    0.0,    0.1,    0.1,    0.4,   -0.1,   -0.6,   -0.6,   -0.9,   -0.8,   -0.9,   -0.9,   -0.8,   -0.8,   -0.8,   -0.9,   -0.8,   -0.8,   -0.7,   -0.7,   -0.6,   -0.5,   -0.5,  999.0,  999.0
2001/10/21 01:00,   -0.2,   -0.4,   -2.8,   -1.2,    0.5,    0.6,   -0.0,    0.3,    0.0,    0.1,    0.6,    0.2,   -0.1,    0.8,    0.7,  999.0,    0.5,  999.0,  999.0,  999.0,  999.0,  999.0,    0.9,    0.6,    0.4,    0.4,   -0.0,   -0.0,   -0.5,   -0.6,   -0.8,   -0.7,   -0.6,   -0.7,   -0.7,   -0.7,   -0.8,   -0.7,   -0.7,   -0.7,   -0.6,   -0.6,   -0.6,   -0.6,   -0.6,  999.0
2001/10/21 01:10,    0.2,    0.2,   -0.8,    0.3,    0.4,    0.3,   -0.2,    0.1,    0.3,   -0.6,    0.5,    0.9,    0.6,  999.0,  999.0,  999.0,  999.0,  999.0,  999.0,  999.0,  999.0,    0.1,    0.4,    0.3,  999.0,    0.1,  999.0,   -0.7,   -0.4,   -0.6,   -0.8,   -0.9,   -0.9,   -0.8,   -0.8,   -0.7,   -0.7,   -0.7,   -0.6,   -0.5,   -0.4,   -0.3,   -0.3,   -0.2,  999.0,  999.0
2001/10/21 01:20,    0.2,    0.3,    0.1,    0.3,    0.4,    0.3,    0.1,    0.1,    0.0,   -0.4,   -0.4,   -0.4,    0.1,   -0.5,    0.7,  999.0,  999.0,  999.0,  999.0,  999.0,  999.0,  999.0,  999.0,  999.0,   -0.2,    0.3,    0.4,    0.2,   -0.1,   -1.1,   -0.8,   -0.8,   -0.8,   -0.8,   -0.8,   -0.8,   -0.8,   -0.7,   -0.8,   -0.7,   -0.6,   -0.5,   -0.5,   -0.5,   -0.5,  999.0
2001/10/21 01:30,    0.1,   -0.0,   -0.0,   -0.1,    0.1,    0.1,   -0.2,    0.4,    0.4,    0.0,    0.6,    0.3,  999.0,  999.0,  999.0,  999.0,  999.0,  999.0,  999.0,  999.0,  999.0,  999.0,  999.0,    0.6,    0.6,    0.6,    0.2,   -0.3,   -1.0,   -1.2,   -1.3,   -1.3,   -1.3,   -1.2,   -1.1,   -1.0,   -1.0,   -0.8,   -0.7,   -0.6,   -0.6,   -0.5,   -0.4,   -0.2,  999.0,  999.0
2001/10/21 01:40,    0.6,   -0.4,   -0.3,   -0.0,   -0.2,    0.0,   -0.3,   -0.1,   -0.0,    0.1,   -0.1,  999.0,  999.0,  999.0,   -0.3,  999.0,  999.0,  999.0,  999.0,  999.0,  999.0,    0.4,    0.6,    0.6,    0.9,   -0.1,   -0.6,   -1.0,   -1.1,   -1.0,   -1.0,   -0.8,   -0.8,   -0.8,   -0.8,   -0.8,   -0.8,   -0.8,   -0.7,   -0.7,   -0.7,   -0.6,   -0.5,   -0.5,   -0.4,  999.0
2001/10/21 01:50,   -0.1,   -0.2,   -0.2,    0.6,    0.0,   -0.0,   -0.1,   -0.1,   -0.1,   -0.1,   -0.3,   -0.3,   -0.5,  999.0,  999.0,  999.0,  999.0,  999.0,   -0.0,   -0.1,    0.2,   -0.0,   -0.6,   -0.9,   -0.9,   -1.2,   -0.9,   -0.7,   -0.4,   -0.9,   -0.9,   -1.0,   -0.9,   -0.9,   -0.8,   -0.7,   -0.6,   -0.6,   -0.6,   -0.5,   -0.5,   -0.5,   -0.5,   -0.4,   -0.5,  999.0
2001/10/21 02:00,   -0.0,   -0.2,    0.1,   -0.1,    0.1,    0.3,    0.2,    0.1,    0.1,   -0.5,    0.0,    0.8,  999.0,  999.0,  999.0,  999.0,  999.0,  999.0,   -0.1,    0.4,    0.8,    0.3,    0.4,    0.4,  999.0,  999.0,   -1.2,   -1.2,   -1.1,   -1.1,   -1.2,   -1.2,   -1.1,   -1.0,   -0.9,   -0.8,   -0.8,   -0.7,   -0.5,   -0.5,  999.0,  999.0,  999.0,  999.0,  999.0,  999.0
2001/10/21 02:10,    0.1,    0.1,   -0.9,    0.4,    0.6,    0.1,    0.1,    0.0,    0.5,   -0.3,   -0.1,   -0.7,  999.0,  999.0,    0.1,    0.5,  999.0,  999.0,  999.0,    0.4,    0.4,   -0.2,   -0.3,   -0.8,   -0.4,   -0.9,   -0.7,   -1.0,   -1.0,   -1.1,   -1.0,   -1.0,   -0.8,   -0.7,   -0.8,  999.0,  999.0,  999.0,  999.0,  999.0,  999.0,  999.0,  999.0,  999.0,  999.0,  999.0
2001/10/21 02:20,    0.2,    0.2,    0.1,    0.3,    0.4,    0.5,    0.3,    0.3,    0.5,    0.1,   -0.1,   -0.2,  999.0,  999.0,  999.0,  999.0,  999.0,  999.0,  999.0,  999.0,   -0.2,   -0.2,   -0.3,  999.0,    0.2,    0.2,  999.0,   -0.9,   -0.9,   -1.0,   -1.0,   -0.9,   -0.9,  999.0,  999.0,  999.0,  999.0,  999.0,  999.0,  999.0,  999.0,  999.0,  999.0,  999.0,  999.0,  999.0
2001/10/21 02:30,    1.3,    0.2,  999.0,    0.2,    0.6,    0.4,    0.5,    0.3,    0.1,    0.4,    0.2,    1.1,  999.0,    0.8,  999.0,  999.0,  999.0,  999.0,  999.0,   -0.2,   -0.2,   -0.3,   -0.0,  999.0,  999.0,  999.0,   -0.6,   -0.8,   -0.9,   -1.0,   -1.0,   -1.1,   -1.1,   -1.0,   -0.9,   -0.8,   -0.9,   -0.8,   -0.6,  999.0,  999.0,  999.0,  999.0,  999.0,  999.0,  999.0
2001/10/21 02:40,   -0.1,    0.2,   -0.2,   -0.1,    0.2,    0.3,  999.0,    0.1,    0.1,    0.1,    0.1,  999.0,  999.0,  999.0,  999.0,  999.0,  999.0,  999.0,  999.0,  999.0,    0.3,    0.2,    0.5,  999.0,  999.0,   -0.6,   -1.1,   -1.0,   -1.1,   -1.1,   -1.1,   -1.1,   -1.1,   -1.0,   -0.9,   -0.9,   -0.8,   -0.7,   -0.6,   -0.5,  999.0,  999.0,  999.0,  999.0,  999.0,  999.0
2001/10/21 02:50,   -0.3,   -0.4,   -0.0,   -0.4,   -0.0,    0.0,   -0.2,    0.1,    0.1,    0.1,    0.2,  999.0,   -1.5,  999.0,  999.0,  999.0,  999.0,    0.0,    0.0,   -0.4,   -1.2,   -1.4,   -0.8,   -1.0,   -1.5,   -1.2,   -1.2,   -1.1,   -1.0,   -0.9,   -0.8,   -0.8,   -0.7,   -0.7,   -0.7,   -0.7,   -0.6,   -0.7,   -0.6,   -0.6,  999.0,  999.0,  999.0,  999.0,  999.0,  999.0
2001/10/21 03:00,    0.2,    0.1,    0.4,    0.1,    0.3,    0.6,    0.3,    0.1,    0.0,    0.0,   -0.2,   -0.5,   -0.9,    0.2,  999.0,  999.0,  999.0,  999.0,    0.1,    0.1,  999.0,  999.0,  999.0,  999.0,  999.0,   -0.9,   -1.0,   -0.8,   -0.7,   -0.6,   -0.5,   -0.5,   -0.5,   -0.5,   -0.4,   -0.5,   -0.5,   -0.5,  999.0,  999.0,  999.0,  999.0,  999.0,  999.0,  999.0,  999.0
2001/10/21 03:10,   -0.1,    0.1,    0.1,    0.3,    0.8,    0.7,    0.1,   -0.1,   -0.2,    0.1,   -0.1,  999.0,  999.0,  999.0,  999.0,  999.0,   -0.2,   -0.2,  999.0,    0.1,  999.0,  999.0,  999.0,  999.0,  999.0,  999.0,  999.0,   -0.9,   -0.8,   -0.8,   -0.8,   -0.8,  999.0,   -0.9,   -0.9,   -0.9,  999.0,  999.0,  999.0,  999.0,  999.0,  999.0,  999.0,  999.0,  999.0,  999.0
2001/10/21 03:20,    0.0,   -0.1,   -0.1,   -0.0,   -0.1,    0.0,   -0.2,  999.0,    0.0,    0.0,    0.1,  999.0,  999.0,  999.0,  999.0,  999.0,  999.0,  999.0,  999.0,  999.0,  999.0,  999.0,  999.0,  999.0,  999.0,  999.0,  999.0,  999.0,  999.0,   -0.8,  999.0,  999.0,  999.0,   -0.7,   -0.6,  999.0,  999.0,  999.0,  999.0,  999.0,  999.0,  999.0,  999.0,  999.0,  999.0,  999.0
2001/10/21 03:30,   -0.2,    0.0,    0.0,    0.1,    0.2,    0.3,    0.1,   -0.0,   -0.0,   -0.0,   -0.1,  999.0,  999.0,  999.0,  999.0,  999.0,  999.0,  999.0,  999.0,   -0.1,   -0.0,  999.0,  999.0,  999.0,  999.0,  999.0,  999.0,   -0.8,   -0.9,   -1.0,   -1.0,   -0.9,   -0.9,  999.0,  999.0,  999.0,  999.0,  999.0,  999.0,  999.0,   -0.6,   -0.8,   -0.8,   -0.7,  999.0,  999.0
2001/10/21 03:40,    0.1,   -0.0,    0.2,    0.4,   -0.2,    0.2,   -0.4,    0.0,    0.1,   -0.0,  999.0,  999.0,  999.0,  999.0,  999.0,  999.0,  999.0,  999.0,  999.0,  999.0,  999.0,  999.0,  999.0,  999.0,  999.0,  999.0,  999.0,   -0.7,   -0.8,   -0.8,   -0.8,   -0.8,   -0.8,   -0.8,   -0.7,   -0.7,  999.0,  999.0,   -0.7,   -0.8,   -0.8,   -0.8,   -0.7,  999.0,  999.0,  999.0
2001/10/21 03:50,   -0.2,   -0.6,   -0.5,    0.2,   -1.0,    0.1,    0.1,   -0.0,    0.1,  999.0,    0.1,  999.0,  999.0,  999.0,  999.0,  999.0,  999.0,  999.0,  999.0,  999.0,  999.0,  999.0,   -0.0,    0.1,    0.3,    0.3,   -0.2,   -0.9,   -0.9,   -1.0,   -1.0,   -0.9,   -0.9,   -0.8,   -0.7,  999.0,  999.0,   -0.7,   -0.7,  999.0,  999.0,  999.0,  999.0,  999.0,  999.0,  999.0
2001/10/21 04:00,   -0.1,   -0.2,   -0.3,   -0.3,    0.2,    0.3,    0.1,    0.1,    0.1,   -0.1,   -0.1,  999.0,  999.0,  999.0,  999.0,  999.0,  999.0,  999.0,  999.0,  999.0,  999.0,  999.0,    0.1,    0.2,    0.2,   -0.1,   -0.4,   -0.7,   -0.8,   -0.9,   -0.8,   -0.9,   -0.8,   -0.8,  999.0,  999.0,  999.0,  999.0,  999.0,  999.0,  999.0,  999.0,  999.0,  999.0,  999.0,  999.0
2001/10/21 04:10,   -0.0,   -0.3,   -0.4,   -0.1,    0.1,   -0.1,   -0.3,   -0.5,   -0.1,   -0.2,   -0.1,   -0.1,  999.0,  999.0,  999.0,  999.0,  999.0,  999.0,  999.0,    0.3,    0.3,    0.2,    0.0,   -0.3,   -0.1,   -0.4,   -0.6,  999.0,  999.0,  999.0,  999.0,  999.0,  999.0,  999.0,  999.0,  999.0,  999.0,  999.0,  999.0,  999.0,  999.0,  999.0,  999.0,  999.0,  999.0,  999.0
2001/10/21 04:20,   -0.2,   -0.2,   -0.3,   -0.0,   -0.1,   -0.3,   -0.4,   -0.1,   -0.1,    0.0,   -0.3,   -0.2,  999.0,  999.0,  999.0,  999.0,  999.0,  999.0,  999.0,    0.2,    0.2,    0.2,    0.2,    0.5,  999.0,  999.0,  999.0,   -0.5,  999.0,  999.0,  999.0,  999.0,  999.0,  999.0,  999.0,  999.0,  999.0,  999.0,  999.0,  999.0,  999.0,  999.0,  999.0,  999.0,  999.0,  999.0
2001/10/21 04:30,    0.2,   -0.2,   -0.4,    0.0,    0.2,   -0.1,   -0.3,   -0.1,   -0.1,   -0.1,   -0.2,   -0.1,  999.0,  999.0,  999.0,  999.0,  999.0,  999.0,   -0.1,   -0.1,   -0.1,  999.0,  999.0,  999.0,  999.0,  999.0,   -0.8,   -0.9,   -0.8,   -1.0,   -0.9,   -1.0,   -0.8,   -0.8,   -0.7,  999.0,  999.0,  999.0,  999.0,  999.0,  999.0,  999.0,  999.0,  999.0,  999.0,  999.0
2001/10/21 04:40,    0.3,    0.0,   -0.3,   -0.1,   -0.2,   -0.2,   -0.3,   -0.1,   -0.1,   -0.0,   -0.1,   -0.1,  999.0,  999.0,  999.0,  999.0,  999.0,    0.1,    0.0,   -0.1,  999.0,  999.0,  999.0,  999.0,  999.0,  999.0,   -0.7,   -0.8,   -0.8,   -0.9,   -1.0,   -1.0,   -0.8,   -0.7,   -0.6,  999.0,  999.0,  999.0,  999.0,  999.0,  999.0,  999.0,  999.0,  999.0,  999.0,  999.0
2001/10/21 04:50,    0.0,  999.0,   -0.5,   -0.2,   -0.2,   -0.4,   -0.4,   -0.2,   -0.1,   -0.1,  999.0,  999.0,  999.0,  999.0,  999.0,  999.0,  999.0,  999.0,  999.0,    0.0,  999.0,  999.0,  999.0,  999.0,  999.0,  999.0,  999.0,  999.0,  999.0,  999.0,  999.0,   -0.7,   -0.7,   -0.7,  999.0,  999.0,  999.0,  999.0,  999.0,  999.0,  999.0,  999.0,  999.0,  999.0,  999.0,  999.0
2001/10/21 05:00,    0.5,    0.1,    0.3,    0.3,    0.2,   -0.2,   -0.1,    0.0,    0.1,   -0.2,   -0.0,    0.1,  999.0,  999.0,  999.0,  999.0,  999.0,  999.0,    0.2,    0.2,  999.0,  999.0,  999.0,  999.0,  999.0,  999.0,   -0.6,  999.0,  999.0,   -0.4,   -0.4,   -0.4,   -0.5,   -0.6,   -0.6,  999.0,  999.0,  999.0,  999.0,  999.0,  999.0,  999.0,  999.0,  999.0,  999.0,  999.0
2001/10/21 05:10,    0.0,    0.0,   -0.1,   -0.1,   -0.1,   -0.2,   -0.1,   -0.0,    0.0,   -0.5,   -0.1,    0.2,    0.1,  999.0,  999.0,  999.0,  999.0,  999.0,    0.2,    0.2,    0.2,  999.0,  999.0,  999.0,  999.0,  999.0,  999.0,  999.0,  999.0,  999.0,  999.0,  999.0,   -0.3,   -0.5,   -0.4,   -0.5,   -0.5,   -0.5,   -0.5,   -0.5,   -0.4,   -0.4,  999.0,  999.0,  999.0,  999.0
2001/10/21 05:20,   -0.5,   -0.4,   -0.5,   -0.2,   -0.0,    0.3,    0.1,   -0.0,  999.0,   -0.2,   -0.1,   -0.0,  999.0,  999.0,  999.0,  999.0,  999.0,  999.0,    0.2,    0.3,  999.0,  999.0,  999.0,  999.0,  999.0,  999.0,   -0.8,   -0.4,   -0.5,   -0.5,   -0.6,   -0.7,   -0.7,   -0.8,   -0.8,   -0.8,   -0.7,   -0.7,   -0.7,   -0.6,   -0.5,   -0.5,   -0.4,  999.0,  999.0,  999.0
2001/10/21 05:30,   -0.4,   -0.0,   -0.3,   -0.2,   -0.1,    0.0,    0.1,    0.1,    0.0,   -0.2,  999.0,    0.1,   -0.0,  999.0,  999.0,  999.0,  999.0,  999.0,  999.0,  999.0,  999.0,  999.0,  999.0,  999.0,   -0.9,   -0.9,   -0.7,   -0.7,   -0.8,   -0.9,   -0.9,   -0.9,   -0.9,   -0.8,   -0.9,   -0.8,   -0.7,   -0.7,   -0.6,   -0.6,   -0.5,   -0.5,   -0.4,   -0.5,   -0.5,  999.0
2001/10/21 05:40,   -1.5,   -0.4,   -0.3,   -0.0,   -0.0,    0.2,   -0.0,    0.0,   -0.1,   -0.2,   -0.1,   -0.1,  999.0,  999.0,  999.0,  999.0,  999.0,  999.0,    0.3,  999.0,   -0.0,   -0.4,   -0.4,   -1.0,   -1.1,   -1.3,   -0.8,   -1.1,   -1.0,   -0.8,   -0.9,   -0.9,   -0.9,   -0.8,   -0.8,   -0.7,   -0.6,   -0.6,   -0.5,   -0.5,   -0.4,   -0.4,   -0.4,   -0.5,  999.0,  999.0
2001/10/21 05:50,   -0.6,   -0.4,  999.0,   -0.0,    0.1,   -0.2,    0.1,   -0.2,   -0.2,   -0.3,   -0.2,    0.0,    0.0,  999.0,  999.0,  999.0,  999.0,  999.0,    0.4,    0.3,   -0.2,   -0.7,   -1.2,   -0.9,   -0.6,   -0.8,   -0.7,   -1.0,   -0.7,   -0.8,   -0.9,   -0.8,   -0.8,   -0.8,   -0.8,   -0.7,   -0.7,   -0.6,   -0.6,   -0.6,   -0.5,  999.0,  999.0,  999.0,  999.0,  999.0
2001/10/21 06:00,   -0.0,   -0.1,  999.0,   -0.1,    0.1,    0.2,    0.0,  999.0,    0.0,   -0.1,   -0.1,   -0.1,    0.0,  999.0,  999.0,  999.0,    0.5,    0.2,    0.3,    0.4,   -0.4,   -0.9,   -1.1,   -1.2,   -1.1,   -1.0,   -1.0,   -1.0,   -1.0,   -1.0,   -1.0,   -1.0,   -0.9,   -0.9,   -0.8,   -0.7,   -0.8,   -0.7,   -0.7,   -0.7,  999.0,  999.0,  999.0,  999.0,  999.0,  999.0
2001/10/21 06:10,   -0.2,   -0.1,   -0.4,   -0.4,   -0.3,   -0.1,   -0.0,    0.0,  999.0,   -0.2,   -0.0,   -0.0,    0.0,    0.5,   -0.3,   -0.8,   -0.3,   -0.5,   -1.4,   -2.0,   -1.9,   -1.4,   -1.0,   -0.9,   -1.0,   -0.9,   -0.9,   -0.8,   -0.8,   -0.8,   -0.8,   -0.7,   -0.7,   -0.7,   -0.7,   -0.7,   -0.6,   -0.7,   -0.7,   -0.5,  999.0,  999.0,  999.0,  999.0,  999.0,  999.0
2001/10/21 06:20,   -0.2,   -0.3,   -0.4,    0.0,    0.1,   -0.3,   -0.3,   -0.3,   -0.1,  999.0,   -0.1,   -0.1,   -0.0,    0.4,    0.3,    0.3,    0.4,    0.5,    0.2,    0.1,    0.3,   -0.4,   -1.0,   -1.1,   -1.1,   -1.0,   -0.9,   -0.9,   -0.9,   -0.9,   -0.8,   -0.8,   -0.8,   -0.8,   -0.7,   -0.8,   -0.7,   -0.7,   -0.7,   -0.7,   -0.7,   -0.7,   -0.6,   -0.6,  999.0,   -0.5
2001/10/21 06:30,   -0.2,   -0.5,   -0.3,   -0.0,   -0.1,  999.0,   -0.2,   -0.3,   -0.1,   -0.0,    0.3,    0.3,    0.2,    0.1,    0.1,    0.0,    0.0,   -0.0,    0.2,   -0.4,   -0.5,   -0.9,   -1.0,   -0.9,   -0.8,   -0.6,   -0.7,   -0.7,   -0.7,   -0.7,   -0.8,   -0.7,   -0.8,   -0.7,   -0.7,   -0.7,   -0.7,   -0.6,   -0.5,   -0.6,   -0.6,   -0.6,   -0.7,   -0.5,  999.0,  999.0
2001/10/21 06:40,  999.0,   -0.1,   -0.3,   -0.1,   -0.0,   -0.1,   -0.2,   -0.5,   -0.3,   -0.3,   -0.4,   -0.5,   -0.1,   -0.2,    0.1,    0.2,    0.1,    0.5,    0.1,   -0.7,   -0.8,   -1.1,   -1.0,   -1.0,   -0.9,   -0.9,   -0.9,   -0.9,   -0.8,   -0.8,   -0.8,   -0.8,   -0.8,   -0.8,   -0.8,   -0.8,   -0.8,   -0.7,   -0.7,   -0.7,   -0.7,   -0.6,   -0.7,  999.0,  999.0,  999.0
2001/10/21 06:50,  999.0,   -0.3,   -0.3,   -0.3,   -0.3,   -0.3,   -0.4,   -0.3,   -0.3,    0.1,    0.0,   -0.3,   -0.3,   -0.5,   -0.5,   -0.1,   -0.6,   -1.0,   -0.8,   -0.8,   -1.5,   -1.1,   -1.0,   -1.0,   -1.1,   -1.0,   -1.0,   -1.0,   -1.0,   -0.9,   -0.9,   -0.9,   -0.9,   -0.9,   -0.9,   -0.9,   -0.8,   -0.8,   -0.7,   -0.7,   -0.6,   -0.5,   -0.5,  999.0,  999.0,  999.0
2001/10/21 07:00,    0.3,    0.0,  999.0,   -0.0,   -0.2,   -0.1,    0.3,    0.1,    0.2,  999.0,   -0.2,   -0.0,    0.3,    0.3,   -0.7,    0.0,   -1.0,   -1.3,   -1.5,   -1.2,   -1.2,   -1.2,   -1.1,   -1.1,   -1.0,   -1.0,   -1.0,   -1.1,   -1.1,   -1.1,   -1.1,   -1.0,   -1.0,   -1.0,   -0.9,   -0.9,   -0.8,   -0.8,   -0.8,   -0.7,   -0.8,   -0.8,   -0.6,  999.0,  999.0,  999.0
2001/10/21 07:10,  999.0,   -0.2,   -0.0,    0.2,    0.0,    0.1,    0.2,    0.2,    0.3,    0.3,    0.6,    0.8,    0.6,    0.1,   -0.1,   -0.8,   -2.0,   -1.8,   -1.6,   -1.5,   -1.3,   -1.1,   -1.1,   -1.1,   -1.2,   -1.2,   -1.1,   -1.2,   -1.2,   -1.2,   -1.2,   -1.3,   -1.2,   -1.2,   -1.1,   -1.0,   -1.0,   -1.1,   -1.1,   -0.7,   -0.7,   -0.7,   -0.7,  999.0,   -0.5,  999.0
2001/10/21 07:20,   -0.2,   -0.5,   -0.3,   -0.0,   -0.1,   -0.3,   -0.3,   -0.3,   -0.1,   -0.2,   -0.3,   -0.5,   -0.4,    0.2,   -1.4,   -1.8,   -1.9,   -1.7,   -1.6,   -1.3,   -1.2,   -1.2,   -1.2,   -1.2,   -1.2,   -1.2,   -1.2,   -1.2,   -1.3,   -1.2,   -1.3,   -1.2,   -1.1,   -1.0,   -1.0,   -0.9,   -0.8,   -0.7,   -0.6,   -0.5,   -0.5,   -0.6,   -0.7,  999.0,  999.0,  999.0
2001/10/21 07:30,   -0.1,   -0.1,   -0.1,   -0.0,    0.1,    0.1,    0.4,    0.2,    0.3,    0.0,   -0.1,   -0.0,    0.1,   -0.8,   -1.1,   -0.5,   -2.0,   -1.7,   -1.7,   -1.5,   -1.4,   -1.4,   -1.3,   -1.2,   -1.1,   -1.1,   -1.0,   -1.0,   -1.0,   -1.0,   -0.9,   -0.9,   -0.8,   -0.9,   -0.8,   -0.8,   -0.8,   -0.7,   -0.7,   -0.6,   -0.6,   -0.7,   -0.6,   -0.6,   -0.4,  999.0
2001/10/21 07:40,  999.0,   -0.1,   -0.2,    0.2,    0.3,    0.3,    0.3,    0.4,    0.3,   -0.1,    0.3,   -0.1,   -0.0,   -0.2,   -0.3,   -0.9,   -1.3,   -1.3,   -1.2,   -1.1,   -1.0,   -1.1,   -1.0,   -1.0,   -1.1,   -1.1,   -1.1,   -1.1,   -1.0,   -1.0,   -1.0,   -1.0,   -0.9,   -0.9,   -0.9,   -0.8,   -0.7,   -0.6,   -0.5,   -0.4,  999.0,  999.0,  999.0,  999.0,  999.0,  999.0
2001/10/21 07:50,   -0.2,   -0.3,   -0.1,   -0.0,    0.1,   -0.1,  999.0,   -0.2,   -0.2,   -0.1,   -0.2,   -0.1,   -0.0,   -0.1,   -0.6,   -0.7,   -1.0,   -1.2,   -1.1,   -1.1,   -1.2,   -1.2,   -1.1,   -1.1,   -1.1,   -1.1,   -1.0,   -1.0,   -0.9,   -0.9,   -0.9,   -0.9,   -0.8,   -0.7,   -0.7,   -0.6,  999.0,  999.0,  999.0,  999.0,  999.0,  999.0,  999.0,  999.0,  999.0,  999.0
2001/10/21 08:00,   -0.2,  999.0,  999.0,   -0.0,   -0.2,   -0.0,    0.2,    0.3,    0.4,    0.4,    0.9,    0.5,    0.1,   -0.1,    0.2,   -0.8,   -1.0,   -0.9,   -0.9,   -1.0,   -1.0,   -0.9,   -0.9,   -0.9,   -1.0,   -1.0,   -1.0,   -0.9,   -0.9,   -0.9,   -0.9,   -0.9,   -0.8,   -0.8,   -0.8,   -0.9,   -0.7,   -0.7,   -0.6,   -0.7,   -0.7,   -0.5,  999.0,   -0.3,  999.0,  999.0
2001/10/21 08:10,  999.0,  999.0,   -0.0,   -0.1,   -0.0,   -0.1,   -0.1,   -0.1,   -0.1,   -0.0,   -0.2,   -0.2,   -0.0,    0.1,   -0.6,   -1.8,   -1.6,   -1.4,   -1.1,   -1.1,   -1.0,   -1.1,   -1.2,   -1.2,   -1.2,   -1.3,   -1.3,   -1.3,   -1.3,   -1.2,   -1.2,   -1.2,   -1.1,   -1.0,   -1.0,   -1.0,   -0.9,   -0.9,   -0.8,   -0.8,   -0.5,   -0.4,   -0.5,   -0.4,  999.0,  999.0
2001/10/21 08:20,    0.0,   -0.3,   -0.2,   -0.0,   -0.2,   -0.0,  999.0,   -0.3,   -0.1,   -0.3,   -0.2,   -0.5,    0.3,   -0.1,   -0.2,   -0.5,   -0.8,   -1.0,   -1.1,   -1.2,   -1.2,   -1.3,   -1.3,   -1.3,   -1.3,   -1.3,   -1.2,   -1.2,   -1.2,   -1.1,   -1.0,   -1.0,   -0.9,   -0.9,   -0.8,   -0.8,   -0.9,   -0.9,  999.0,  999.0,   -0.7,   -0.6,   -1.2,   -1.0,   -0.5,   -0.3
2001/10/21 08:30,   -0.2,   -0.3,   -0.3,    0.2,   -0.0,    0.2,    0.3,    0.2,    0.1,   -0.0,   -0.3,    0.0,    0.3,   -1.1,   -1.1,   -1.3,   -1.7,   -1.4,   -1.4,   -1.2,   -1.2,   -1.1,   -1.1,   -1.0,   -1.0,   -0.9,   -0.9,   -0.9,   -0.8,   -0.8,   -0.8,   -0.8,   -0.8,   -0.8,   -0.7,   -0.8,   -0.6,   -0.6,   -0.6,   -0.5,  999.0,  999.0,  999.0,  999.0,  999.0,  999.0
2001/10/21 08:40,   -0.0,   -0.4,   -0.3,   -0.1,   -0.1,   -0.1,    0.1,    0.3,    0.0,   -0.1,    0.1,    0.0,    0.0,    0.2,   -0.1,   -0.0,   -1.5,   -1.1,   -1.0,   -1.0,   -1.3,   -1.3,   -1.4,   -1.3,   -1.3,   -1.1,   -1.0,   -1.0,   -0.8,   -0.9,   -0.9,   -0.9,   -0.8,   -0.8,   -0.8,   -0.9,   -0.8,   -0.7,   -0.6,   -0.5,   -0.5,  999.0,  999.0,  999.0,  999.0,  999.0
2001/10/21 08:50,  999.0,   -0.3,   -0.4,   -0.2,    0.1,    0.1,   -0.0,    0.1,    0.2,    0.1,   -0.2,   -0.2,   -0.4,   -0.3,  999.0,  999.0,    0.1,   -0.4,   -1.1,   -1.4,   -1.4,   -1.3,   -1.2,   -1.2,   -1.1,   -1.0,   -0.7,   -1.0,   -1.0,   -1.0,   -1.0,   -1.0,   -1.0,   -1.0,   -1.0,   -1.0,   -0.9,   -0.9,   -0.8,   -0.7,   -0.6,   -0.6,   -0.6,   -0.4,  999.0,  999.0
2001/10/21 09:00,  999.0,   -0.2,   -0.3,   -0.3,    0.1,    0.2,    0.4,    0.2,    0.1,   -0.0,    0.2,    0.2,    0.0,    0.1,    0.0,   -0.1,   -0.8,   -1.2,   -1.3,   -1.4,   -1.4,   -1.2,   -1.1,   -1.1,   -1.0,   -0.9,   -0.9,   -0.8,   -0.8,   -0.9,   -0.9,   -0.8,   -0.8,   -0.8,   -0.8,   -0.8,   -0.7,   -0.7,   -0.7,   -0.6,   -0.5,  999.0,   -0.8,  999.0,  999.0,  999.0
2001/10/21 09:10,  999.0,   -0.3,   -0.4,   -0.2,    0.0,    0.1,    0.0,    0.1,    0.0,   -0.0,   -0.0,   -0.1,   -0.0,   -0.1,   -0.0,   -1.4,   -2.0,   -1.8,   -1.4,   -1.3,   -1.2,   -1.2,   -1.2,   -1.2,   -1.0,   -0.9,   -0.8,   -0.7,   -0.8,   -0.8,   -0.9,   -0.9,   -0.9,   -0.9,   -0.9,   -0.9,   -0.8,   -0.8,   -0.7,   -0.7,   -0.7,   -0.7,  999.0,  999.0,  999.0,  999.0
2001/10/21 09:20,  999.0,   -0.1,   -0.2,   -0.3,   -0.4,   -0.2,   -0.1,   -0.2,   -0.2,   -0.2,    0.1,    0.3,    0.3,    0.4,    0.1,    0.2,   -0.0,   -0.8,   -1.1,   -1.2,   -1.0,   -1.1,   -1.1,   -1.2,   -1.0,   -1.0,   -0.9,   -0.8,   -0.8,   -0.8,   -0.8,   -0.8,   -0.8,   -0.8,   -0.8,   -0.7,   -0.7,   -0.7,   -0.6,   -0.6,   -0.6,   -0.7,   -0.6,   -0.6,  999.0,  999.0
2001/10/21 09:30,   -0.0,  999.0,  999.0,   -0.0,   -0.0,  999.0,   -0.1,   -0.1,   -0.1,  999.0,    0.1,    0.2,    0.2,    0.2,    0.2,  999.0,   -0.8,   -1.2,   -1.2,   -1.2,   -1.1,   -1.1,   -1.1,   -1.1,   -0.9,   -0.8,   -0.7,   -0.6,   -0.6,   -0.7,   -0.7,   -0.7,   -0.7,   -0.7,   -0.7,   -0.7,   -0.7,   -0.7,   -0.6,   -0.6,   -0.6,  999.0,  999.0,  999.0,  999.0,  999.0
2001/10/21 09:40,   -0.0,  999.0,   -0.2,   -0.2,   -0.2,  999.0,  999.0,   -0.1,   -0.0,   -0.0,  999.0,   -0.0,    0.1,    0.0,   -0.3,   -1.0,   -1.6,   -1.6,   -1.4,   -1.2,   -1.1,   -1.0,   -1.0,   -1.0,   -0.9,   -0.8,   -0.6,   -0.5,   -0.5,   -0.6,   -0.6,   -0.6,   -0.6,   -0.5,   -0.6,   -0.6,   -0.6,   -0.6,  999.0,  999.0,  999.0,  999.0,  999.0,  999.0,  999.0,  999.0
2001/10/21 09:50,    0.1,   -0.2,   -0.2,   -0.1,   -0.2,   -0.2,   -0.1,   -0.4,   -0.4,  999.0,   -0.4,   -0.4,   -0.5,   -1.2,   -0.9,   -1.2,   -1.3,   -1.4,   -1.1,   -1.1,   -1.0,   -1.0,   -1.0,   -0.9,   -0.8,   -0.7,   -0.6,   -0.6,   -0.5,   -0.6,   -0.7,   -0.7,   -0.7,   -0.7,   -0.7,   -0.7,   -0.6,   -0.6,   -0.6,   -0.6,   -0.5,   -0.6,  999.0,  999.0,  999.0,  999.0
2001/10/21 10:00,    0.0,  999.0,   -0.2,   -0.1,   -0.2,   -0.1,   -0.3,   -0.3,   -0.3,  999.0,   -0.1,   -0.1,    0.2,   -0.2,   -1.0,   -1.4,   -1.2,   -1.1,   -1.1,   -1.0,   -1.0,   -0.9,   -1.0,   -0.9,   -0.9,   -0.8,   -0.8,   -0.7,   -0.8,   -0.8,   -0.8,   -0.8,   -0.7,   -0.7,   -0.7,   -0.7,   -0.7,   -0.6,   -0.6,   -0.6,   -0.6,   -0.6,   -0.4,  999.0,  999.0,  999.0
2001/10/21 10:10,    0.0,  999.0,   -0.1,    0.0,    0.0,   -0.1,   -0.1,   -0.3,   -0.4,   -0.3,   -0.3,   -0.3,   -0.4,   -0.8,   -1.3,   -1.2,   -1.3,   -1.1,   -1.1,   -1.0,   -0.9,   -1.0,   -0.9,   -0.9,   -0.9,   -0.9,   -0.8,   -0.7,   -0.8,   -0.9,   -0.8,   -0.8,   -0.8,   -0.7,   -0.7,   -0.8,   -0.6,   -0.6,   -0.6,   -0.5,   -0.5,  999.0,  999.0,  999.0,  999.0,  999.0
2001/10/21 10:20,   -0.0,  999.0,   -0.1,    0.0,   -0.1,    0.0,  999.0,    0.2,    0.1,    0.5,   -0.7,   -0.9,   -1.3,   -1.3,   -1.3,   -1.4,   -1.3,   -1.2,   -1.1,   -1.2,   -1.2,   -1.2,   -1.2,   -1.1,   -1.1,   -1.0,   -0.9,   -0.8,   -0.7,   -0.7,   -0.7,   -0.8,   -0.8,   -0.8,   -0.8,   -0.7,   -0.6,   -0.6,   -0.7,   -0.7,   -0.7,   -0.6,   -0.5,  999.0,  999.0,  999.0
2001/10/21 10:30,   -1.2,   -1.2,   -3.4,   -1.8,   -2.5,   -2.9,   -2.6,   -2.5,   -2.8,   -3.1,   -1.9,   -1.2,   -1.1,   -1.3,   -1.4,   -1.3,   -1.1,   -1.1,   -1.1,   -1.1,   -1.0,   -0.9,   -0.9,   -0.9,   -0.9,   -0.9,   -0.8,   -0.7,   -0.7,   -0.8,   -0.7,   -0.8,   -0.7,   -0.7,   -0.7,   -0.6,   -0.6,   -0.6,   -0.5,   -0.4,   -0.5,  999.0,  999.0,  999.0,  999.0,  999.0
2001/10/21 10:40,   -2.0,   -2.4,   -2.0,   -0.9,   -2.7,   -2.2,   -2.1,   -2.3,   -1.3,   -0.1,    0.3,    0.0,   -0.1,   -0.6,   -1.3,   -1.3,   -1.4,   -1.2,   -1.3,   -1.2,   -1.4,   -1.3,   -1.2,   -1.1,   -1.1,   -1.0,   -0.9,   -0.9,   -1.0,   -0.9,   -0.9,   -0.9,   -0.8,   -0.7,   -0.7,   -0.6,   -0.5,   -0.5,   -0.5,   -0.4,  999.0,   -0.4,   -0.4,  999.0,  999.0,  999.0
2001/10/21 10:50,   -0.0,   -0.1,    0.2,   -0.0,   -0.1,    0.4,   -0.1,    0.5,    0.2,    0.4,    0.4,    0.2,   -0.7,   -1.2,   -1.3,   -1.5,   -1.4,   -1.3,   -1.2,   -1.2,   -1.2,   -1.2,   -1.2,   -1.1,   -1.1,   -1.0,   -0.8,   -0.7,   -0.7,   -0.8,   -0.9,   -0.9,   -0.9,   -0.8,   -0.7,   -0.7,   -0.7,   -0.7,   -0.5,   -0.5,   -0.4,   -0.4,  999.0,  999.0,  999.0,  999.0
2001/10/21 11:00,   -0.0,   -0.2,   -0.1,   -0.2,    0.1,   -0.0,   -0.2,   -2.6,   -2.7,   -3.3,   -3.1,   -1.3,   -1.1,   -1.2,   -1.3,   -1.3,   -1.3,   -1.3,   -1.2,   -1.2,   -1.2,   -1.2,   -1.2,   -1.2,   -1.1,   -1.1,   -1.0,   -1.0,   -1.0,   -1.1,   -1.0,   -1.0,   -0.9,   -0.8,   -0.8,   -0.8,   -0.7,   -0.6,   -0.6,   -0.5,   -0.5,   -0.4,   -0.4,   -0.5,   -0.2,   -0.0
2001/10/21 11:10,   -1.9,   -1.6,   -2.4,   -2.2,   -2.9,   -3.2,   -3.3,   -3.1,   -3.3,   -3.1,   -3.0,   -1.3,   -1.2,   -1.3,   -1.4,   -1.4,   -1.4,   -1.5,   -1.4,   -1.4,   -1.5,   -1.4,   -1.4,   -1.3,   -1.2,   -1.0,   -0.9,   -0.9,   -0.9,   -0.9,   -0.9,   -0.9,   -0.8,   -0.7,   -0.7,   -0.7,   -0.6,   -0.6,   -0.5,   -0.5,   -0.5,   -0.5,  999.0,  999.0,  999.0,  999.0
2001/10/21 11:20,   -3.8,   -3.6,   -3.6,   -3.4,   -3.3,   -3.0,   -2.3,   -2.2,   -2.1,   -2.0,   -1.8,   -1.1,   -0.9,   -1.1,   -1.1,   -1.1,   -0.9,   -0.9,   -0.9,   -0.9,   -0.9,   -0.9,   -0.8,   -0.8,   -0.6,   -0.7,   -0.6,   -0.7,   -0.6,   -0.6,   -0.7,   -0.7,   -0.7,   -0.7,   -0.7,   -0.7,   -0.7,   -0.7,   -0.6,   -0.5,   -0.5,   -0.5,  999.0,  999.0,  999.0,  999.0
2001/10/21 11:30,   -1.1,   -0.7,   -0.9,   -0.2,   -2.1,   -1.7,   -0.1,   -0.1,   -0.9,   -1.1,   -0.4,   -0.6,   -0.7,   -0.7,   -0.9,   -1.0,   -1.1,  999.0,   -1.2,   -1.4,   -1.3,   -1.3,   -1.4,   -1.3,   -1.3,   -1.2,   -1.2,   -1.1,   -1.2,   -1.1,   -1.0,   -1.0,   -0.9,   -0.9,   -0.8,   -0.8,   -0.8,   -0.7,   -0.6,   -0.6,   -0.6,   -0.6,   -0.5,   -0.0,  999.0,  999.0
2001/10/21 11:40,   -3.4,   -2.8,   -2.5,   -2.3,   -2.7,   -2.7,   -2.5,   -2.7,   -2.7,   -2.5,   -2.4,   -1.6,   -0.8,   -0.9,   -1.0,   -1.0,   -0.9,   -0.8,   -0.8,   -0.8,   -0.8,   -0.8,   -0.8,   -0.8,   -0.7,   -0.7,   -0.7,   -0.7,   -0.8,   -0.9,   -0.9,   -0.8,   -0.9,   -0.7,   -0.9,   -0.8,   -0.7,   -0.7,   -0.7,   -0.6,   -0.5,  999.0,  999.0,  999.0,  999.0,  999.0
2001/10/21 11:50,   -3.4,   -3.4,   -3.2,   -4.0,   -3.2,   -3.1,   -2.4,   -2.1,   -2.5,   -2.3,   -2.3,  999.0,   -0.9,   -0.8,   -0.9,   -0.8,   -0.8,   -0.5,   -0.7,   -0.7,   -0.8,   -0.7,   -0.7,   -0.6,   -0.5,   -0.4,   -0.3,   -0.4,   -0.4,   -0.4,   -0.6,   -0.6,   -0.5,   -0.5,   -0.4,   -0.3,   -0.4,   -0.4,  999.0,  999.0,  999.0,  999.0,  999.0,  999.0,  999.0,  999.0
2001/10/21 12:00,   -2.4,   -2.6,   -2.6,   -2.3,   -2.2,   -2.3,   -2.4,   -2.6,   -2.8,   -2.1,   -2.1,   -2.6,   -1.6,   -1.6,   -1.1,   -1.0,   -1.0,   -1.0,   -0.9,   -0.9,   -0.9,   -0.9,   -0.8,   -0.8,   -0.7,   -0.7,   -0.7,   -0.6,   -0.7,   -0.8,   -0.7,   -0.7,   -0.6,   -0.6,   -0.5,   -0.5,   -0.3,   -0.2,   -0.3,  999.0,  999.0,  999.0,  999.0,  999.0,  999.0,  999.0
2001/10/21 12:10,   -4.4,   -4.2,   -3.9,   -3.8,   -3.6,   -3.4,   -3.4,   -3.3,   -2.9,   -2.8,   -2.8,   -2.2,   -1.2,   -1.3,   -1.2,   -1.0,   -0.9,   -0.9,   -0.9,   -0.9,   -0.9,   -0.9,   -0.8,   -0.7,   -0.6,   -0.6,   -0.6,   -0.6,   -0.6,   -0.7,   -0.7,   -0.7,   -0.7,   -0.7,   -0.6,   -0.6,   -0.6,   -0.7,   -0.6,   -0.5,  999.0,  999.0,  999.0,  999.0,  999.0,  999.0
2001/10/21 12:20,   -2.4,   -2.3,   -2.5,   -2.5,   -2.4,   -2.4,   -2.5,   -2.5,   -2.2,   -2.2,   -1.9,   -1.1,   -1.0,   -1.3,   -1.2,   -1.1,   -1.0,   -1.1,   -1.1,   -1.0,   -0.9,   -0.9,   -0.8,   -0.7,   -0.7,   -0.7,   -0.7,   -0.7,   -0.8,   -0.7,   -0.7,   -0.6,   -0.6,   -0.7,   -0.7,   -0.6,   -0.7,   -0.7,   -0.7,   -0.5,   -0.5,   -0.3,  999.0,  999.0,  999.0,  999.0
2001/10/21 12:30,   -2.5,   -2.9,   -3.0,   -2.8,   -2.6,   -2.7,   -2.8,   -3.0,   -3.0,   -2.9,   -2.7,   -2.6,   -1.7,   -1.6,   -1.4,   -1.1,   -1.2,   -1.0,   -0.9,   -1.0,   -1.1,   -0.9,   -0.8,   -0.7,   -0.7,   -0.7,   -0.7,   -0.7,   -0.6,   -0.6,   -0.6,   -0.6,   -0.6,   -0.6,   -0.6,   -0.6,   -0.6,   -0.7,  999.0,  999.0,  999.0,  999.0,  999.0,  999.0,  999.0,  999.0
2001/10/21 12:40,   -3.1,   -2.9,   -3.0,   -3.0,   -2.8,   -2.7,   -2.8,   -2.8,   -2.8,   -2.7,   -2.5,   -2.6,   -1.9,   -1.7,   -1.5,   -1.3,   -1.2,   -1.3,   -1.2,   -1.2,   -1.2,   -1.1,   -1.0,   -0.9,   -0.8,   -0.7,   -0.6,   -0.5,   -0.6,   -0.6,   -0.7,   -0.7,   -0.6,   -0.6,   -0.5,   -0.6,   -0.6,   -0.5,   -0.5,  999.0,  999.0,  999.0,  999.0,  999.0,  999.0,  999.0
2001/10/21 12:50,   -3.6,   -3.6,   -3.8,   -3.8,   -3.8,   -3.8,   -4.1,   -4.2,   -4.2,   -4.4,   -4.0,   -4.0,   -3.6,   -2.1,   -1.4,   -1.3,   -1.3,   -1.3,   -1.3,   -1.2,   -1.2,   -1.1,   -1.1,   -1.0,   -0.9,   -0.8,   -0.7,   -0.6,   -0.6,   -0.6,   -0.7,   -0.7,   -0.7,   -0.6,   -0.6,   -0.6,   -0.6,   -0.6,   -0.6,   -0.5,   -0.6,  999.0,  999.0,  999.0,  999.0,  999.0
2001/10/21 13:00,   -4.5,   -4.0,   -3.8,   -3.5,   -3.5,   -3.4,   -2.9,   -2.6,   -2.4,   -2.3,   -2.1,   -1.8,   -1.6,   -1.6,   -1.1,   -1.0,   -1.2,   -1.1,   -1.0,   -1.0,   -0.9,   -1.0,   -0.7,   -0.9,   -0.8,   -0.7,   -0.6,   -0.5,   -0.6,   -0.7,   -0.8,   -0.7,   -0.7,   -0.6,   -0.7,   -0.7,   -0.5,  999.0,  999.0,  999.0,  999.0,  999.0,  999.0,  999.0,  999.0,  999.0
2001/10/21 13:10,   -2.3,   -2.4,   -2.5,   -2.2,   -2.5,   -2.5,   -2.1,   -2.1,   -2.6,   -3.0,   -3.4,   -3.8,   -3.9,   -2.3,   -1.4,   -1.2,   -1.1,   -1.1,   -1.1,   -1.0,   -0.9,   -0.9,   -0.9,   -0.8,   -0.7,   -0.7,   -0.6,   -0.6,   -0.6,   -0.7,   -0.7,   -0.8,   -0.5,   -0.5,   -0.6,   -1.1,   -1.1,   -0.6,   -0.5,   -0.6,  999.0,  999.0,  999.0,  999.0,  999.0,  999.0
2001/10/21 13:20,   -4.2,   -4.4,   -4.2,   -4.2,   -3.8,   -4.1,   -3.8,   -3.6,   -3.5,   -3.2,   -3.0,   -3.8,   -2.4,   -1.6,   -1.3,   -1.1,   -1.2,   -1.3,   -1.2,   -1.0,   -1.0,   -1.0,   -1.0,   -0.9,   -0.9,   -0.9,   -0.8,   -0.8,   -0.9,   -0.9,   -0.9,   -0.8,   -0.8,   -0.8,   -0.8,   -0.8,   -0.8,   -0.8,   -0.7,  999.0,  999.0,  999.0,  999.0,  999.0,  999.0,  999.0
2001/10/21 13:30,   -3.0,   -2.9,   -2.2,   -1.8,   -1.4,   -1.2,   -1.0,   -0.6,   -0.6,   -0.0,   -0.1,  999.0,   -1.6,   -0.8,   -0.7,   -0.8,   -1.0,   -1.1,   -1.0,   -1.2,   -1.0,  999.0,   -1.0,   -1.0,   -0.9,   -0.9,  999.0,   -0.9,   -0.8,   -1.0,   -1.1,   -1.0,   -1.0,   -0.9,   -0.8,   -0.8,  999.0,  999.0,  999.0,  999.0,  999.0,  999.0,  999.0,  999.0,  999.0,  999.0
2001/10/21 13:40,   -0.5,   -0.1,   -0.1,  999.0,   -1.2,   -1.5,    0.0,   -0.1,   -0.2,   -0.9,   -1.3,   -0.3,   -0.6,   -0.3,   -1.2,   -1.5,   -1.2,   -1.1,   -1.2,   -1.1,   -1.0,   -1.0,   -1.0,   -0.9,   -0.8,   -0.8,   -0.8,   -0.8,   -0.9,   -0.9,   -0.9,   -0.9,   -0.9,  999.0,  999.0,  999.0,  999.0,  999.0,  999.0,  999.0,  999.0,  999.0,  999.0,  999.0,  999.0,  999.0
2001/10/21 13:50,   -0.0,    0.0,   -1.1,   -2.1,   -2.1,   -2.1,   -2.1,   -2.5,   -2.0,   -1.1,   -1.7,   -0.8,   -1.1,   -1.6,   -1.7,   -1.9,   -1.5,   -1.4,   -1.4,   -1.3,   -1.2,   -1.1,   -0.9,   -1.0,   -0.9,   -0.8,   -0.7,   -0.8,   -0.8,   -0.9,   -0.9,   -0.8,   -0.8,   -0.8,   -0.8,   -0.7,   -0.7,   -0.7,  999.0,  999.0,  999.0,  999.0,  999.0,  999.0,  999.0,  999.0
2001/10/21 14:00,   -0.9,   -2.8,   -2.9,   -2.9,   -2.6,   -2.5,   -2.4,   -2.2,   -2.4,   -2.5,   -2.2,   -1.4,   -1.0,   -1.4,   -1.5,   -1.6,   -1.3,   -1.3,   -1.3,   -1.2,   -1.0,   -1.0,   -1.0,   -0.9,   -0.9,   -0.7,   -0.7,   -0.8,   -0.8,   -0.8,   -0.7,   -0.7,   -0.7,   -0.7,   -0.7,   -0.7,   -0.7,   -0.6,  999.0,  999.0,  999.0,  999.0,  999.0,  999.0,  999.0,  999.0
2001/10/21 14:10,   -2.5,   -2.2,   -2.0,   -2.0,   -2.0,   -2.0,   -1.9,   -1.7,  999.0,  999.0,  999.0,    0.0,    0.1,   -0.6,   -1.5,   -1.5,   -1.7,   -1.8,   -1.5,   -1.5,   -1.3,   -1.2,   -1.1,   -1.0,   -0.9,   -0.7,   -0.7,   -0.8,   -0.7,   -0.7,   -0.7,   -0.7,   -0.6,   -0.6,   -0.6,   -0.6,   -0.6,   -0.5,  999.0,  999.0,  999.0,  999.0,  999.0,  999.0,  999.0,  999.0
2001/10/21 14:20,   -0.7,   -1.2,   -1.2,   -1.2,   -1.0,   -1.4,   -1.1,   -3.0,   -1.4,   -2.8,   -2.4,   -0.7,   -0.5,   -1.4,   -1.3,   -1.8,   -1.8,   -1.4,   -1.2,   -1.1,   -0.9,   -1.0,   -1.0,   -0.9,   -0.8,   -0.8,   -0.8,   -0.9,   -0.8,   -0.8,   -0.8,   -0.8,   -0.8,   -0.7,   -0.7,   -0.8,   -0.7,   -0.6,  999.0,  999.0,  999.0,  999.0,  999.0,  999.0,  999.0,  999.0
2001/10/21 14:30,  999.0,   -2.7,   -2.8,   -2.6,   -2.3,   -2.2,   -2.1,   -2.1,   -2.1,   -1.6,   -0.8,    0.1,    0.1,   -0.9,   -1.7,   -1.9,   -1.8,   -1.3,   -1.1,   -1.0,   -0.9,   -0.9,   -0.8,   -0.8,   -0.7,   -0.7,   -0.8,   -0.8,   -0.8,   -0.8,   -0.8,   -0.8,   -0.7,   -0.7,   -0.7,   -0.7,   -0.6,   -0.5,  999.0,  999.0,  999.0,  999.0,  999.0,  999.0,  999.0,  999.0
2001/10/21 14:40,   -0.0,   -1.0,   -1.0,   -1.4,   -1.5,   -1.6,   -1.5,   -0.5,   -1.1,   -1.8,   -1.0,   -0.4,   -0.6,   -2.1,   -2.1,   -1.7,   -1.4,   -1.1,   -1.2,   -0.9,   -0.9,   -0.8,   -0.9,   -0.8,   -0.9,   -0.9,   -0.9,   -1.0,   -1.0,   -0.9,   -0.9,   -0.9,   -0.9,   -0.9,   -0.9,   -0.8,   -0.9,  999.0,   -0.8,   -0.7,  999.0,  999.0,  999.0,  999.0,  999.0,  999.0
2001/10/21 14:50,   -3.8,   -3.7,   -3.6,   -2.9,   -3.2,   -3.7,   -3.4,   -3.4,   -3.3,   -3.1,   -2.9,   -2.2,   -1.3,   -1.6,   -1.6,   -1.2,   -1.2,   -1.2,   -1.0,   -0.9,   -1.0,   -1.0,   -1.0,   -1.0,   -0.8,   -0.9,   -0.9,   -0.9,   -0.8,   -0.8,   -0.8,   -0.9,   -0.9,   -0.9,   -0.8,  999.0,  999.0,  999.0,  999.0,  999.0,  999.0,  999.0,  999.0,  999.0,  999.0,  999.0
2001/10/21 15:00,   -3.3,   -3.3,   -3.4,   -3.6,   -3.4,   -3.6,   -3.7,   -3.7,   -3.5,   -3.6,   -3.8,   -2.9,   -2.2,   -1.7,   -1.4,   -1.3,   -1.2,   -1.1,   -1.1,   -1.0,   -1.0,   -1.0,   -1.0,   -0.9,   -0.8,   -0.8,   -0.7,   -0.8,   -0.7,   -0.8,   -0.7,   -0.8,   -0.8,   -0.7,   -0.6,   -0.6,   -0.6,  999.0,  999.0,  999.0,  999.0,  999.0,  999.0,  999.0,  999.0,  999.0
2001/10/21 15:10,   -4.0,   -4.1,   -4.2,   -4.3,   -4.3,   -4.4,   -4.5,   -4.6,   -4.5,   -4.6,   -4.7,   -4.6,   -2.8,   -1.6,   -1.4,   -1.3,   -1.2,   -1.2,   -1.0,   -1.0,   -1.0,   -1.0,   -0.9,   -0.9,   -0.8,   -0.9,   -0.9,   -0.9,   -0.9,   -0.9,   -0.9,   -0.8,   -0.8,   -0.7,   -0.7,  999.0,  999.0,  999.0,  999.0,  999.0,  999.0,  999.0,  999.0,  999.0,  999.0,  999.0
2001/10/21 15:20,   -5.1,   -5.1,   -5.1,   -5.0,   -4.9,   -4.9,   -5.0,   -5.1,   -5.2,   -5.1,   -5.2,   -5.3,   -3.2,   -1.6,   -1.3,   -1.3,   -1.2,   -1.1,   -1.0,  999.0,   -1.0,   -1.1,   -1.1,   -1.0,   -1.1,   -1.0,   -1.0,   -0.9,   -0.9,   -0.9,   -0.9,   -0.8,   -0.7,   -0.7,  999.0,   -0.8,   -0.7,   -0.6,   -0.6,  999.0,  999.0,  999.0,  999.0,  999.0,  999.0,  999.0
2001/10/21 15:30,   -5.1,   -5.2,   -5.2,   -5.2,   -5.2,   -5.3,   -5.3,   -5.3,   -5.2,   -5.3,   -5.2,   -5.2,   -3.9,   -1.8,   -1.1,   -1.0,   -1.1,   -1.1,   -1.1,   -1.1,   -1.2,   -1.1,   -1.1,   -1.0,   -1.0,   -1.0,   -0.9,   -1.0,   -1.0,   -1.0,   -1.0,   -0.9,   -0.9,   -0.8,   -0.8,   -0.7,  999.0,  999.0,  999.0,   -3.8,  999.0,  999.0,  999.0,  999.0,  999.0,  999.0
2001/10/21 15:40,   -4.4,   -4.2,   -4.3,   -4.4,   -4.3,   -4.4,   -4.3,   -4.2,   -4.2,   -4.3,   -4.3,   -4.3,   -3.3,   -1.7,   -1.3,   -1.3,   -1.3,   -1.3,   -1.3,   -1.3,   -1.2,   -1.2,   -1.1,   -1.0,   -1.0,   -1.0,   -1.0,   -1.0,   -1.0,   -0.9,   -0.9,   -0.8,   -0.8,   -0.8,   -0.7,   -0.7,   -0.8,   -0.7,   -0.6,   -0.6,  999.0,  999.0,  999.0,  999.0,  999.0,  999.0
2001/10/21 15:50,   -4.2,   -4.3,   -4.2,   -4.3,   -4.2,   -4.2,   -4.2,   -4.2,   -4.2,   -4.0,   -4.0,   -3.9,   -3.2,   -1.8,   -1.4,   -1.4,   -1.4,   -1.3,   -1.3,   -1.3,   -1.3,   -1.3,   -1.2,   -1.2,   -1.1,   -1.1,   -1.0,   -1.0,   -1.0,   -1.0,   -0.9,   -0.9,   -0.8,   -0.8,   -0.8,   -0.7,   -0.7,   -0.6,   -0.5,   -0.6,  999.0,  999.0,  999.0,  999.0,  999.0,  999.0
2001/10/21 16:00,   -3.6,   -3.6,   -3.5,   -3.6,   -3.5,   -3.3,   -3.3,   -3.3,   -3.3,   -3.4,   -3.6,   -3.5,   -3.3,   -1.8,   -1.4,   -1.5,   -1.5,   -1.4,   -1.3,   -1.2,   -1.1,   -1.2,   -1.1,   -1.2,   -1.2,   -1.2,   -1.3,   -1.3,   -1.2,   -1.1,   -1.0,   -0.8,   -0.8,   -0.8,   -0.8,   -0.7,   -0.6,   -0.7,   -0.7,  999.0,  999.0,  999.0,  999.0,  999.0,  999.0,  999.0
2001/10/21 16:10,   -4.1,   -4.2,   -4.1,   -4.3,   -4.5,   -4.6,   -4.7,   -4.7,   -4.8,   -4.9,   -5.0,   -5.0,   -4.7,   -2.2,   -1.5,   -1.1,   -1.2,   -1.3,   -1.1,   -1.1,   -1.1,   -1.1,   -1.1,   -1.1,   -1.1,   -1.1,   -0.9,   -0.9,   -0.9,   -0.9,   -0.8,   -0.8,   -0.8,   -0.8,   -0.7,   -0.7,   -0.5,   -0.4,   -0.3,  999.0,  999.0,  999.0,  999.0,  999.0,  999.0,  999.0
2001/10/21 16:20,   -4.1,   -4.0,   -4.1,   -3.9,   -3.8,   -3.9,   -4.0,   -4.0,   -4.0,   -4.1,   -4.2,   -4.2,   -4.2,   -2.1,   -1.3,   -1.3,   -1.3,   -1.2,   -1.2,   -1.2,   -1.1,   -1.0,   -0.9,   -0.9,   -0.9,   -0.9,   -0.9,   -0.9,   -0.9,   -0.9,   -0.9,   -0.8,   -0.7,   -0.8,   -0.7,   -0.7,   -0.7,   -0.7,   -0.7,   -0.6,   -0.6,  999.0,  999.0,  999.0,  999.0,  999.0
2001/10/21 16:30,   -4.2,   -4.4,   -4.5,   -4.4,   -4.4,   -4.4,   -4.3,   -4.3,   -4.3,   -4.3,   -4.5,   -4.4,   -4.4,   -2.6,   -1.5,   -1.2,   -1.1,   -1.0,   -1.0,   -1.0,   -1.0,   -0.9,   -1.0,   -1.0,   -1.0,   -1.0,   -0.9,   -1.0,   -0.9,   -0.9,   -1.0,   -0.9,   -0.9,   -0.9,   -0.9,   -0.9,   -0.9,   -0.8,   -0.9,   -0.7,   -0.7,  999.0,  999.0,  999.0,  999.0,  999.0
2001/10/21 16:40,   -3.9,   -3.7,   -3.7,   -3.4,   -3.3,   -3.1,   -2.8,   -2.6,   -2.4,   -2.5,   -2.6,   -2.5,   -2.5,   -2.1,   -1.1,   -0.8,   -0.7,   -0.7,   -0.9,   -1.2,   -0.9,   -0.9,   -1.0,   -1.1,   -1.1,   -1.1,   -0.9,   -1.0,   -0.9,   -0.9,   -0.8,   -0.8,   -0.8,   -0.9,   -1.0,   -0.9,   -0.9,   -0.8,   -0.6,   -0.7,  999.0,  999.0,  999.0,  999.0,  999.0,  999.0
2001/10/21 16:50,   -2.4,   -2.3,   -2.1,   -2.1,   -2.1,   -1.5,   -0.9,   -1.8,   -1.4,  999.0,   -1.1,   -2.0,   -2.1,   -1.8,   -1.0,   -1.0,   -1.1,   -1.1,   -1.2,   -1.1,   -1.0,   -1.0,   -0.9,   -0.9,   -0.8,   -0.7,   -0.6,   -0.6,   -0.6,   -0.7,   -0.8,   -0.8,   -0.8,   -0.8,   -0.7,   -0.7,   -0.7,   -0.6,  999.0,  999.0,  999.0,  999.0,  999.0,  999.0,  999.0,  999.0
2001/10/21 17:00,   -0.0,   -2.0,   -2.1,   -2.6,   -3.2,   -2.4,   -2.4,   -3.1,   -2.8,   -3.0,   -2.4,   -2.7,   -2.9,   -2.3,   -0.9,   -0.6,   -0.8,   -0.9,   -0.9,   -0.9,   -0.7,   -0.7,  999.0,  999.0,   -0.9,   -0.5,   -0.7,   -0.7,   -0.6,   -0.6,   -0.7,   -0.8,   -0.8,   -0.8,   -0.8,   -0.7,   -0.7,   -0.7,   -0.6,  999.0,  999.0,  999.0,  999.0,  999.0,  999.0,  999.0
2001/10/21 17:10,  999.0,   -3.1,   -3.0,   -1.5,   -1.8,   -1.6,   -0.8,   -0.7,  999.0,   -0.3,  999.0,   -0.1,   -0.0,   -0.0,   -0.0,   -0.1,  999.0,   -0.4,   -0.6,   -0.7,   -1.1,   -1.2,   -1.2,   -1.2,   -1.0,   -0.9,   -0.8,   -0.7,   -0.8,   -0.9,   -1.0,   -0.9,   -0.9,   -0.9,   -0.9,   -0.9,   -0.7,   -0.7,   -0.6,   -0.5,  999.0,  999.0,  999.0,  999.0,  999.0,  999.0
2001/10/21 17:20,   -0.1,   -0.1,   -0.0,   -0.2,   -0.2,   -0.1,    0.0,  999.0,   -0.1,  999.0,  999.0,  999.0,   -0.1,    0.1,    0.0,   -0.7,   -1.0,   -1.2,   -1.1,   -1.0,   -1.0,   -1.0,   -0.9,   -0.9,   -0.8,   -0.8,   -0.7,   -0.7,   -0.8,   -1.0,   -1.0,   -1.0,   -1.0,   -0.9,   -0.9,   -0.8,   -0.7,   -0.7,   -0.6,   -0.6,  999.0,  999.0,  999.0,  999.0,  999.0,  999.0
2001/10/21 17:30,    0.2,   -0.4,   -0.1,   -0.3,   -0.3,   -2.1,   -2.2,   -2.1,   -1.4,   -1.3,   -1.2,   -1.6,   -0.2,   -0.0,   -0.4,   -0.6,   -0.8,   -1.0,   -1.0,   -0.9,   -1.0,   -0.8,   -0.8,   -0.9,   -0.9,   -0.9,   -0.9,   -0.9,   -0.9,   -0.9,   -0.8,   -0.8,   -0.7,   -0.7,   -0.7,   -0.5,  999.0,  999.0,  999.0,  999.0,  999.0,  999.0,  999.0,  999.0,  999.0,  999.0
2001/10/21 17:40,   -0.1,   -0.2,  999.0,  999.0,   -0.1,  999.0,   -0.8,   -0.9,    0.0,    0.1,   -0.0,   -0.2,  999.0,   -0.1,   -0.3,   -0.2,   -0.8,   -0.9,   -1.0,   -1.1,   -1.0,   -1.0,   -1.0,   -0.9,   -1.0,   -0.8,   -0.8,   -0.8,   -0.8,   -0.8,   -0.9,   -0.8,   -0.8,   -0.7,   -0.8,  999.0,  999.0,  999.0,  999.0,  999.0,  999.0,  999.0,  999.0,  999.0,  999.0,  999.0
2001/10/21 17:50,   -0.1,    0.2,    0.1,   -0.3,   -0.4,   -0.3,   -0.2,   -0.2,   -0.0,    0.1,   -0.0,    0.1,    0.2,   -0.3,   -0.2,   -0.4,   -0.8,   -0.7,   -0.8,   -0.8,   -0.8,   -0.9,   -0.9,   -0.9,   -0.8,   -0.7,   -0.7,   -0.7,   -0.8,   -0.9,   -0.9,   -0.9,   -0.9,   -0.8,   -0.8,   -0.8,   -1.0,  999.0,  999.0,  999.0,  999.0,  999.0,  999.0,  999.0,  999.0,  999.0
2001/10/21 18:00,    0.5,   -0.8,   -1.4,   -2.0,   -2.4,   -2.7,   -2.7,   -2.7,   -3.3,   -3.1,   -3.3,   -3.3,   -3.0,   -1.9,   -1.1,   -1.1,   -1.1,   -1.0,   -1.0,   -1.0,   -1.1,   -1.1,   -1.1,   -1.1,  999.0,   -1.0,   -1.0,   -0.9,   -1.0,   -0.9,   -1.0,   -1.0,   -1.0,   -1.0,   -1.0,   -1.0,   -1.0,   -1.0,   -0.9,  999.0,  999.0,  999.0,  999.0,  999.0,  999.0,  999.0
2001/10/21 18:10,   -3.8,   -3.9,   -3.7,   -3.7,   -3.8,   -3.7,   -3.9,   -3.8,   -3.8,   -3.9,   -4.0,   -4.0,   -3.8,   -1.8,   -1.3,   -1.2,   -1.1,   -1.1,   -1.1,   -1.1,   -1.0,   -1.1,   -1.1,   -1.1,   -1.1,   -1.1,   -1.1,   -1.2,   -1.1,   -1.2,   -1.1,   -1.2,   -1.2,   -1.1,   -1.0,   -0.9,   -0.8,   -0.8,   -0.8,   -0.7,   -0.6,  999.0,  999.0,  999.0,  999.0,  999.0
2001/10/21 18:20,   -4.4,   -4.5,   -4.4,   -4.2,   -4.2,   -4.1,   -4.0,   -3.9,   -4.0,   -3.7,   -3.9,   -3.8,   -3.7,   -1.8,   -1.1,   -1.1,   -1.1,   -1.1,   -1.1,   -1.2,   -1.2,   -1.2,   -1.2,   -1.2,   -1.1,   -1.1,   -1.1,   -1.0,   -1.2,   -1.2,   -1.2,   -1.2,   -1.1,   -1.1,   -0.6,   -0.4,   -0.4,  999.0,  999.0,  999.0,  999.0,  999.0,  999.0,  999.0,  999.0,  999.0
2001/10/21 18:30,   -3.5,   -3.4,   -3.2,   -3.0,   -3.0,   -3.0,   -3.1,   -3.2,   -3.1,   -3.3,   -3.3,   -3.5,   -3.5,   -1.8,   -1.3,   -1.3,   -1.2,   -1.2,   -1.2,   -1.2,   -1.1,   -1.2,   -1.2,   -1.1,   -1.1,   -1.1,   -1.2,   -1.2,   -1.3,   -1.2,   -1.1,   -1.1,   -1.2,   -1.0,   -0.8,   -0.5,   -0.4,  999.0,  999.0,  999.0,  999.0,  999.0,  999.0,  999.0,  999.0,  999.0
2001/10/21 18:40,   -3.5,   -3.6,   -3.6,   -4.0,   -4.1,   -4.1,   -3.9,   -3.7,   -3.7,   -3.6,   -3.5,   -3.4,   -3.3,   -1.6,   -1.1,   -1.1,   -1.1,   -1.0,   -1.1,   -1.1,   -1.2,   -1.2,   -1.2,   -1.2,   -1.2,   -1.1,   -1.2,   -1.2,   -1.6,   -1.2,   -1.1,   -0.8,   -0.9,   -0.8,   -0.5,   -0.3,  999.0,  999.0,  999.0,  999.0,  999.0,  999.0,  999.0,  999.0,  999.0,  999.0
2001/10/21 18:50,   -3.4,   -3.4,   -3.3,   -3.1,   -3.1,   -2.7,   -2.4,   -2.3,   -2.2,   -2.1,   -2.2,   -2.1,   -2.2,   -1.5,   -1.2,   -1.3,   -1.2,   -1.2,   -1.2,   -1.0,   -1.1,   -1.0,   -1.0,   -1.0,   -0.9,   -0.8,   -0.9,   -0.9,   -0.5,   -0.6,   -0.5,   -0.7,   -0.9,  999.0,   -0.3,    0.1,  999.0,  999.0,  999.0,  999.0,  999.0,  999.0,  999.0,  999.0,  999.0,  999.0
2001/10/21 19:00,   -2.0,   -1.7,   -2.0,   -1.7,   -0.6,   -1.9,   -0.5,   -1.5,   -1.8,   -1.0,    0.2,   -1.0,  999.0,   -0.1,    0.1,   -0.3,   -0.4,   -0.7,   -0.8,   -0.9,   -1.0,   -0.8,   -0.8,   -0.7,   -0.6,   -0.5,   -0.6,   -0.8,   -0.5,   -0.3,   -0.3,  999.0,  999.0,   -0.2,   -0.3,  999.0,  999.0,  999.0,  999.0,  999.0,  999.0,  999.0,  999.0,  999.0,  999.0,  999.0
2001/10/21 19:10,    0.1,   -0.1,   -0.2,   -0.3,   -0.2,    0.5,    0.1,   -0.2,  999.0,   -0.2,    0.0,   -0.2,  999.0,   -0.1,  999.0,  999.0,   -0.5,   -0.9,   -1.0,   -0.8,   -1.0,   -1.0,   -0.8,   -0.9,   -0.8,   -0.6,   -0.6,   -0.6,  999.0,   -0.7,   -0.7,   -0.5,  999.0,  999.0,  999.0,  999.0,  999.0,  999.0,  999.0,  999.0,  999.0,  999.0,  999.0,  999.0,  999.0,  999.0
2001/10/21 19:20,   -0.2,   -0.2,   -0.4,   -0.4,   -0.3,   -0.1,    0.0,  999.0,  999.0,  999.0,  999.0,   -0.2,    0.1,  999.0,    0.2,    0.1,   -0.6,   -0.8,   -1.0,   -1.1,   -1.2,   -1.2,   -1.2,   -1.2,   -1.0,   -0.9,   -0.9,   -0.2,   -2.3,   -0.4,   -0.5,  999.0,    0.0,   -0.6,  999.0,  999.0,  999.0,  999.0,  999.0,  999.0,  999.0,  999.0,  999.0,  999.0,  999.0,  999.0
2001/10/21 19:30,   -0.4,   -0.3,   -0.4,   -0.4,   -0.2,   -0.2,  999.0,  999.0,    0.0,   -0.1,  999.0,   -0.1,  999.0,  999.0,   -0.1,   -0.0,   -0.3,   -1.0,   -1.1,   -1.2,   -1.2,   -1.2,   -1.1,   -1.0,   -1.2,  999.0,  999.0,  999.0,  999.0,  999.0,  999.0,  999.0,  999.0,   -0.4,  999.0,  999.0,  999.0,  999.0,  999.0,  999.0,  999.0,  999.0,  999.0,  999.0,  999.0,  999.0
2001/10/21 19:40,   -0.3,   -0.2,   -0.2,   -0.2,   -0.2,   -0.0,   -0.2,  999.0,   -1.6,    0.0,    0.1,    0.3,    0.1,    0.3,  999.0,    0.0,   -0.7,   -1.3,   -1.3,   -1.3,   -1.4,   -1.3,  999.0,  999.0,   -0.4,  999.0,  999.0,  999.0,  999.0,  999.0,  999.0,  999.0,  999.0,  999.0,  999.0,  999.0,  999.0,  999.0,  999.0,  999.0,  999.0,  999.0,  999.0,  999.0,  999.0,  999.0
2001/10/21 19:50,    0.1,   -0.1,   -0.6,   -0.3,   -0.3,    0.7,   -0.0,  999.0,   -1.2,    0.0,  999.0,    0.0,  999.0,   -0.0,    0.1,   -0.0,   -0.3,   -1.3,   -1.4,   -1.6,   -1.7,   -1.8,   -1.5,   -0.3,    0.0,   -0.0,   -0.2,  999.0,  999.0,  999.0,  999.0,  999.0,  999.0,  999.0,  999.0,  999.0,  999.0,  999.0,  999.0,  999.0,  999.0,  999.0,  999.0,  999.0,  999.0,  999.0
2001/10/21 20:00,    0.1,   -0.2,   -0.3,   -0.3,   -0.3,   -0.2,   -0.2,    0.4,  999.0,   -0.2,  999.0,   -0.3,  999.0,  999.0,  999.0,    0.0,  999.0,   -1.7,   -1.8,   -1.8,   -1.8,   -1.8,   -1.3,   -0.6,    0.0,    0.0,  999.0,  999.0,  999.0,  999.0,  999.0,  999.0,  999.0,  999.0,  999.0,  999.0,  999.0,  999.0,  999.0,  999.0,  999.0,  999.0,  999.0,  999.0,  999.0,  999.0
2001/10/21 20:10,    0.2,   -0.3,   -0.3,   -0.0,   -0.4,   -0.1,  999.0,   -2.8,   -2.6,   -2.0,   -0.1,   -2.8,   -2.7,   -1.4,   -1.9,   -1.4,   -2.0,   -2.1,   -2.0,   -2.0,   -2.1,   -1.9,   -1.8,   -1.4,   -0.7,   -0.2,  999.0,  999.0,  999.0,  999.0,  999.0,  999.0,   -0.2,   -0.3,  999.0,  999.0,  999.0,  999.0,  999.0,  999.0,  999.0,  999.0,  999.0,  999.0,  999.0,  999.0
2001/10/21 20:20,   -0.2,   -0.4,   -0.2,   -0.3,   -0.4,   -1.0,   -2.8,   -2.9,   -3.2,   -2.7,   -2.2,   -2.6,   -2.6,   -1.9,   -1.9,   -0.1,   -0.9,   -2.0,   -1.8,   -1.7,   -1.6,   -1.5,   -1.5,   -1.2,   -0.8,   -0.3,  999.0,  999.0,   -0.2,  999.0,  999.0,  999.0,  999.0,  999.0,  999.0,  999.0,  999.0,  999.0,  999.0,  999.0,  999.0,  999.0,  999.0,  999.0,  999.0,  999.0
2001/10/21 20:30,   -0.4,   -0.0,    2.1,   -1.6,   -0.2,   -2.1,   -3.4,   -3.4,   -3.2,   -3.5,   -2.5,   -3.6,   -2.8,   -1.9,   -1.6,   -1.0,   -0.8,   -1.5,   -1.5,   -1.6,   -1.6,   -1.4,   -1.4,   -1.2,   -0.8,   -0.3,  999.0,  999.0,  999.0,  999.0,  999.0,  999.0,  999.0,   -0.3,  999.0,  999.0,  999.0,  999.0,  999.0,  999.0,  999.0,  999.0,  999.0,  999.0,  999.0,  999.0
2001/10/21 20:40,    0.0,    0.1,   -1.3,   -0.3,   -0.0,   -2.4,   -3.3,   -3.3,   -3.3,   -3.5,   -2.3,   -3.4,   -2.6,   -2.0,   -2.1,   -2.2,   -1.9,   -1.9,   -1.9,   -2.0,   -1.9,   -1.9,   -1.7,   -1.5,   -1.2,   -0.7,   -0.7,   -0.5,   -0.4,  999.0,  999.0,  999.0,  999.0,  999.0,  999.0,  999.0,  999.0,  999.0,  999.0,  999.0,  999.0,  999.0,  999.0,  999.0,  999.0,  999.0
2001/10/21 20:50,   -0.1,   -1.1,    0.1,    0.6,   -0.4,   -2.4,   -3.0,   -2.6,   -2.4,   -1.4,   -3.0,   -2.9,   -2.4,   -1.7,   -1.7,   -0.8,   -1.5,   -1.7,   -1.7,   -1.8,   -1.8,   -1.9,   -1.8,   -1.6,   -1.3,   -0.9,   -0.6,   -0.4,  999.0,  999.0,  999.0,  999.0,  999.0,   -0.2,  999.0,  999.0,  999.0,  999.0,  999.0,  999.0,  999.0,  999.0,  999.0,  999.0,  999.0,  999.0
2001/10/21 21:00,    0.2,   -0.0,   -0.9,    0.0,    0.2,   -0.1,   -2.9,   -2.8,   -2.6,   -3.3,   -2.9,   -2.8,   -2.1,   -1.4,   -1.4,   -1.4,   -1.4,   -1.7,   -1.7,   -1.7,   -1.7,   -1.8,   -1.8,   -1.8,   -1.5,   -1.2,   -0.9,   -0.7,   -0.8,  999.0,  999.0,  999.0,  999.0,  999.0,  999.0,  999.0,  999.0,  999.0,  999.0,  999.0,  999.0,  999.0,  999.0,  999.0,  999.0,  999.0
2001/10/21 21:10,  999.0,   -0.3,   -0.5,   -0.3,   -0.3,   -1.4,   -2.7,   -2.9,   -3.1,   -3.2,   -3.5,   -3.1,   -2.2,   -1.4,   -1.1,   -0.9,   -1.2,   -1.3,   -1.5,   -1.4,   -1.4,   -1.4,   -1.5,   -1.3,   -1.1,   -0.9,   -0.5,   -0.3,  999.0,  999.0,  999.0,  999.0,  999.0,  999.0,  999.0,  999.0,  999.0,  999.0,  999.0,  999.0,  999.0,  999.0,  999.0,  999.0,  999.0,  999.0
2001/10/21 21:20,   -0.1,   -0.4,    0.3,   -0.3,   -0.7,   -0.1,   -2.4,   -0.9,   -1.6,   -0.1,   -1.1,   -2.4,   -2.2,   -1.1,   -0.6,   -0.5,   -1.3,   -1.6,   -1.6,   -1.6,   -1.5,   -1.5,   -1.4,   -1.2,   -0.5,  999.0,  999.0,  999.0,  999.0,  999.0,  999.0,  999.0,  999.0,  999.0,  999.0,  999.0,  999.0,  999.0,  999.0,  999.0,  999.0,  999.0,  999.0,  999.0,  999.0,  999.0
2001/10/21 21:30,   -0.0,   -0.0,    0.1,   -0.3,   -0.1,    0.1,   -1.7,   -2.3,   -0.1,   -0.1,   -2.0,   -2.4,   -2.1,   -1.4,   -0.2,    0.0,   -0.9,   -1.0,   -1.3,   -1.3,   -1.3,   -1.3,   -1.4,   -1.2,   -0.9,   -0.7,   -0.8,   -0.7,  999.0,   -1.1,  999.0,  999.0,  999.0,  999.0,  999.0,  999.0,  999.0,  999.0,  999.0,  999.0,  999.0,  999.0,  999.0,  999.0,  999.0,  999.0
2001/10/21 21:40,   -0.0,  999.0,   -0.1,   -0.3,  999.0,   -0.2,  999.0,    0.2,   -0.2,  999.0,  999.0,  999.0,  999.0,  999.0,  999.0,  999.0,   -1.0,   -1.3,   -1.4,   -1.4,   -1.4,   -1.4,   -1.4,   -1.4,   -1.2,   -1.0,   -0.9,   -0.8,   -1.0,   -0.8,   -0.7,  999.0,  999.0,  999.0,  999.0,  999.0,  999.0,  999.0,  999.0,  999.0,  999.0,  999.0,  999.0,  999.0,  999.0,  999.0
2001/10/21 21:50,   -0.0,   -0.2,   -0.2,   -0.2,   -0.0,   -0.2,   -0.2,   -0.1,   -0.0,   -0.0,  999.0,  999.0,    0.1,  999.0,    0.1,   -0.0,   -0.9,   -1.1,   -1.1,   -1.2,   -1.2,   -1.2,   -1.2,   -1.3,   -1.0,   -0.9,   -0.8,   -0.7,   -0.7,   -1.0,  999.0,  999.0,  999.0,  999.0,  999.0,  999.0,  999.0,  999.0,  999.0,  999.0,  999.0,  999.0,  999.0,  999.0,  999.0,  999.0
2001/10/21 22:00,  999.0,   -0.1,    0.0,   -0.1,   -0.1,   -0.1,    0.0,   -0.1,   -0.2,   -0.0,  999.0,  999.0,  999.0,    0.4,    0.2,   -0.1,   -0.9,   -0.9,   -1.0,   -1.1,   -1.1,   -1.0,   -0.9,   -0.8,   -0.8,   -0.6,   -0.6,   -0.4,   -0.6,  999.0,  999.0,  999.0,  999.0,  999.0,  999.0,  999.0,  999.0,  999.0,  999.0,  999.0,  999.0,  999.0,  999.0,  999.0,  999.0,  999.0
2001/10/21 22:10,    0.0,    0.3,   -0.0,   -0.0,    0.2,    0.1,    0.2,   -0.2,   -0.1,   -0.0,   -0.1,  999.0,  999.0,    0.0,    0.0,   -0.3,   -0.8,   -0.8,   -0.8,   -0.8,   -0.8,   -0.7,   -0.9,   -0.7,   -0.8,   -0.8,   -0.8,   -0.8,   -0.7,   -0.9,   -0.9,  999.0,  999.0,  999.0,  999.0,  999.0,  999.0,  999.0,  999.0,  999.0,  999.0,  999.0,  999.0,  999.0,  999.0,  999.0
2001/10/21 22:20,   -0.0,   -0.2,   -0.1,   -0.0,   -0.1,    0.1,    0.0,   -0.2,    0.1,    0.2,    0.3,    0.1,  999.0,  999.0,   -0.0,  999.0,   -0.8,   -0.8,   -0.9,   -1.0,   -1.1,   -1.2,   -1.2,   -1.1,   -1.0,   -1.0,   -0.9,   -0.8,   -1.0,   -0.8,   -0.9,  999.0,  999.0,  999.0,  999.0,  999.0,  999.0,  999.0,  999.0,  999.0,  999.0,  999.0,  999.0,  999.0,  999.0,  999.0
2001/10/21 22:30,   -0.5,   -0.1,   -0.0,    2.0,    0.2,    1.0,    0.3,    0.2,    0.2,   -0.0,   -0.0,    0.0,  999.0,   -1.3,   -0.3,   -1.0,   -1.0,   -1.1,   -1.1,   -1.1,   -1.1,   -1.0,   -1.1,   -0.9,   -0.8,   -0.8,   -0.7,   -0.7,   -0.8,   -0.6,   -0.6,  999.0,   -0.3,   -0.4,  999.0,  999.0,  999.0,  999.0,  999.0,  999.0,  999.0,  999.0,  999.0,  999.0,  999.0,  999.0
2001/10/21 22:40,   -0.4,    0.1,    0.1,    0.4,    0.2,    0.2,    0.1,    0.0,   -0.0,    0.3,  999.0,  999.0,  999.0,  999.0,  999.0,   -0.4,   -0.6,   -0.9,   -1.0,   -1.0,   -0.9,   -0.9,   -0.8,   -0.7,   -0.8,   -0.8,   -0.8,   -0.8,   -0.9,   -0.6,   -0.7,   -0.7,   -0.3,   -0.3,  999.0,  999.0,  999.0,  999.0,  999.0,  999.0,  999.0,  999.0,  999.0,  999.0,  999.0,  999.0
2001/10/21 22:50,   -0.7,    0.2,   -0.4,   -0.2,    0.2,    0.2,    0.3,    0.3,    0.1,    0.2,    0.5,    0.4,  999.0,  999.0,    0.2,    0.1,   -0.2,   -0.7,   -0.8,   -0.9,   -0.8,   -0.8,   -0.7,   -0.6,   -0.7,   -0.7,   -0.7,   -0.6,   -0.6,   -0.3,   -0.5,   -0.5,   -0.7,  999.0,  999.0,  999.0,  999.0,  999.0,  999.0,  999.0,  999.0,  999.0,  999.0,  999.0,  999.0,  999.0
2001/10/21 23:00,   -0.2,    0.5,    0.2,    0.4,    0.1,    0.1,    0.2,    0.3,    0.2,    0.1,  999.0,    0.5,    0.2,   -0.5,   -0.1,   -0.5,   -0.7,   -0.8,   -0.9,   -0.9,   -0.8,   -0.7,   -0.6,   -0.5,   -0.5,   -0.5,   -0.9,  999.0,  999.0,  999.0,   -0.2,  999.0,  999.0,  999.0,  999.0,  999.0,  999.0,  999.0,  999.0,  999.0,  999.0,  999.0,  999.0,  999.0,  999.0,  999.0
2001/10/21 23:10,   -0.1,   -0.2,    0.1,    0.5,    0.5,    0.2,    0.1,   -0.2,   -0.0,   -1.3,   -2.2,   -2.1,   -2.3,   -0.8,   -0.2,   -0.3,   -0.7,   -0.6,   -1.0,   -0.9,   -1.0,   -1.3,   -0.9,   -1.2,   -0.9,   -1.0,   -0.5,   -0.4,    0.2,  999.0,   -0.4,   -0.1,  999.0,  999.0,  999.0,  999.0,  999.0,  999.0,  999.0,  999.0,  999.0,  999.0,  999.0,  999.0,  999.0,  999.0
2001/10/21 23:20,    0.2,   -0.1,   -0.1,    0.4,   -0.1,    0.1,    0.1,    0.2,    0.3,    0.1,    0.8,   -2.1,    0.3,   -0.3,    0.4,    0.1,   -0.5,   -0.6,   -0.8,   -1.1,   -1.4,   -1.2,   -1.2,   -1.1,   -1.2,   -1.4,   -1.1,   -0.8,   -0.9,   -0.6,  999.0,   -0.2,  999.0,  999.0,  999.0,  999.0,  999.0,  999.0,  999.0,  999.0,  999.0,  999.0,  999.0,  999.0,  999.0,  999.0
2001/10/21 23:30,   -0.1,   -0.1,    0.0,   -1.7,   -1.0,    0.2,   -0.9,   -1.9,   -0.9,   -2.5,   -3.3,   -3.6,   -2.5,   -1.3,   -1.3,   -1.1,   -1.0,   -0.9,   -1.0,   -0.9,   -0.8,   -0.9,   -0.7,   -0.7,   -0.6,   -0.5,   -0.3,  999.0,  999.0,  999.0,  999.0,   -0.4,   -0.8,   -0.9,   -0.8,   -0.9,   -0.6,   -0.6,   -0.5,   -0.4,   -0.4,  999.0,  999.0,  999.0,  999.0,  999.0
2001/10/21 23:40,    0.1,   -0.7,   -0.1,  999.0,   -1.3,   -0.5,   -1.0,   -1.7,   -0.0,   -1.1,   -1.9,   -1.3,    0.4,   -0.4,   -0.1,  999.0,   -0.0,   -0.1,   -0.4,  999.0,   -0.5,   -0.2,   -0.3,   -0.5,   -0.7,   -0.5,   -0.5,   -0.8,   -0.7,   -0.7,   -0.6,   -0.6,   -0.6,   -0.5,   -0.5,   -0.7,   -0.8,  999.0,  999.0,  999.0,  999.0,  999.0,  999.0,  999.0,  999.0,  999.0
2001/10/21 23:50,   -0.1,   -0.2,    0.0,   -0.4,   -0.3,   -0.4,   -0.2,    0.0,    0.3,    0.2,    0.1,   -0.2,    0.2,   -0.1,    0.1,    0.3,  999.0,   -0.4,   -0.7,   -0.9,   -0.8,   -0.5,   -0.7,   -0.6,   -0.3,  999.0,   -0.7,   -0.8,   -1.0,   -0.9,   -0.9,   -1.3,  999.0,  999.0,   -0.3,   -0.1,  999.0,  999.0,  999.0,  999.0,  999.0,  999.0,  999.0,  999.0,  999.0,  999.0
